Year,Month,Day,Hour,Minute,Value (Times are PST for temperature in C)
2014,06,22,00,00,10.80
2014,06,22,00,01,10.90
2014,06,22,00,02,11.00
2014,06,22,00,03,11.20
2014,06,22,00,04,11.30
2014,06,22,00,05,11.40
2014,06,22,00,06,11.50
2014,06,22,00,07,11.60
2014,06,22,00,08,11.70
2014,06,22,00,09,11.80
2014,06,22,00,10,11.80
2014,06,22,00,11,11.80
2014,06,22,00,12,11.90
2014,06,22,00,13,11.90
2014,06,22,00,14,12.00
2014,06,22,00,15,12.10
2014,06,22,00,16,12.10
2014,06,22,00,17,12.20
2014,06,22,00,18,12.30
2014,06,22,00,19,12.40
2014,06,22,00,20,12.40
2014,06,22,00,21,12.50
2014,06,22,00,22,12.60
2014,06,22,00,23,12.60
2014,06,22,00,24,12.70
2014,06,22,00,25,12.70
2014,06,22,00,26,12.70
2014,06,22,00,27,12.80
2014,06,22,00,28,12.80
2014,06,22,00,29,12.80
2014,06,22,00,30,12.80
2014,06,22,00,31,12.80
2014,06,22,00,32,12.70
2014,06,22,00,33,12.70
2014,06,22,00,34,12.70
2014,06,22,00,35,12.70
2014,06,22,00,36,12.70
2014,06,22,00,37,12.70
2014,06,22,00,38,12.70
2014,06,22,00,39,12.70
2014,06,22,00,40,12.70
2014,06,22,00,41,12.70
2014,06,22,00,42,12.60
2014,06,22,00,43,12.60
2014,06,22,00,44,12.60
2014,06,22,00,45,12.60
2014,06,22,00,46,12.60
2014,06,22,00,47,12.50
2014,06,22,00,48,12.50
2014,06,22,00,49,12.50
2014,06,22,00,50,12.40
2014,06,22,00,51,12.40
2014,06,22,00,52,12.40
2014,06,22,00,53,12.40
2014,06,22,00,54,12.40
2014,06,22,00,55,12.40
2014,06,22,00,56,12.40
2014,06,22,00,57,12.40
2014,06,22,00,58,12.40
2014,06,22,00,59,12.40
2014,06,22,01,00,12.40
2014,06,22,01,01,12.40
2014,06,22,01,02,12.40
2014,06,22,01,03,12.40
2014,06,22,01,04,12.40
2014,06,22,01,05,12.40
2014,06,22,01,06,12.40
2014,06,22,01,07,12.30
2014,06,22,01,08,12.30
2014,06,22,01,09,12.30
2014,06,22,01,10,12.30
2014,06,22,01,11,12.30
2014,06,22,01,12,12.30
2014,06,22,01,13,12.20
2014,06,22,01,14,12.20
2014,06,22,01,15,12.20
2014,06,22,01,16,12.10
2014,06,22,01,17,12.10
2014,06,22,01,18,12.10
2014,06,22,01,19,12.00
2014,06,22,01,20,12.00
2014,06,22,01,21,12.00
2014,06,22,01,22,11.90
2014,06,22,01,23,11.90
2014,06,22,01,24,11.90
2014,06,22,01,25,11.90
2014,06,22,01,26,11.80
2014,06,22,01,27,11.80
2014,06,22,01,28,11.80
2014,06,22,01,29,11.80
2014,06,22,01,30,11.80
2014,06,22,01,31,11.80
2014,06,22,01,32,11.70
2014,06,22,01,33,11.70
2014,06,22,01,34,11.70
2014,06,22,01,35,11.70
2014,06,22,01,36,11.70
2014,06,22,01,37,11.70
2014,06,22,01,38,11.70
2014,06,22,01,39,11.70
2014,06,22,01,40,11.60
2014,06,22,01,41,11.60
2014,06,22,01,42,11.60
2014,06,22,01,43,11.60
2014,06,22,01,44,11.60
2014,06,22,01,45,11.60
2014,06,22,01,46,11.60
2014,06,22,01,47,11.60
2014,06,22,01,48,11.60
2014,06,22,01,49,11.60
2014,06,22,01,50,11.50
2014,06,22,01,51,11.50
2014,06,22,01,52,11.50
2014,06,22,01,53,11.50
2014,06,22,01,54,11.40
2014,06,22,01,55,11.40
2014,06,22,01,56,11.40
2014,06,22,01,57,11.40
2014,06,22,01,58,11.40
2014,06,22,01,59,11.40
2014,06,22,02,00,11.40
2014,06,22,02,01,11.40
2014,06,22,02,02,11.30
2014,06,22,02,03,11.30
2014,06,22,02,04,11.30
2014,06,22,02,05,11.30
2014,06,22,02,06,11.20
2014,06,22,02,07,11.20
2014,06,22,02,08,11.10
2014,06,22,02,09,11.10
2014,06,22,02,10,11.00
2014,06,22,02,11,10.90
2014,06,22,02,12,10.90
2014,06,22,02,13,10.80
2014,06,22,02,14,10.80
2014,06,22,02,15,10.70
2014,06,22,02,16,10.70
2014,06,22,02,17,10.60
2014,06,22,02,18,10.60
2014,06,22,02,19,10.60
2014,06,22,02,20,10.50
2014,06,22,02,21,10.50
2014,06,22,02,22,10.40
2014,06,22,02,23,10.40
2014,06,22,02,24,10.40
2014,06,22,02,25,10.30
2014,06,22,02,26,10.30
2014,06,22,02,27,10.30
2014,06,22,02,28,10.20
2014,06,22,02,29,10.20
2014,06,22,02,30,10.20
2014,06,22,02,31,10.20
2014,06,22,02,32,10.10
2014,06,22,02,33,10.10
2014,06,22,02,34,10.00
2014,06,22,02,35,10.00
2014,06,22,02,36,9.90
2014,06,22,02,37,9.90
2014,06,22,02,38,9.90
2014,06,22,02,39,9.80
2014,06,22,02,40,9.80
2014,06,22,02,41,9.80
2014,06,22,02,42,9.70
2014,06,22,02,43,9.70
2014,06,22,02,44,9.70
2014,06,22,02,45,9.70
2014,06,22,02,46,9.70
2014,06,22,02,47,9.60
2014,06,22,02,48,9.60
2014,06,22,02,49,9.60
2014,06,22,02,50,9.60
2014,06,22,02,51,9.60
2014,06,22,02,52,9.60
2014,06,22,02,53,9.60
2014,06,22,02,54,9.50
2014,06,22,02,55,9.50
2014,06,22,02,56,9.50
2014,06,22,02,57,9.50
2014,06,22,02,58,9.40
2014,06,22,02,59,9.40
2014,06,22,03,00,9.40
2014,06,22,03,01,9.40
2014,06,22,03,02,9.40
2014,06,22,03,03,9.30
2014,06,22,03,04,9.30
2014,06,22,03,05,9.30
2014,06,22,03,06,9.30
2014,06,22,03,07,9.20
2014,06,22,03,08,9.20
2014,06,22,03,09,9.10
2014,06,22,03,10,9.10
2014,06,22,03,11,9.10
2014,06,22,03,12,9.10
2014,06,22,03,13,9.20
2014,06,22,03,14,9.10
2014,06,22,03,15,9.20
2014,06,22,03,16,9.20
2014,06,22,03,17,9.20
2014,06,22,03,18,9.20
2014,06,22,03,19,9.20
2014,06,22,03,20,9.30
2014,06,22,03,21,9.30
2014,06,22,03,22,9.30
2014,06,22,03,23,9.30
2014,06,22,03,24,9.30
2014,06,22,03,25,9.30
2014,06,22,03,26,9.30
2014,06,22,03,27,9.30
2014,06,22,03,28,9.30
2014,06,22,03,29,9.30
2014,06,22,03,30,9.30
2014,06,22,03,31,9.30
2014,06,22,03,32,9.20
2014,06,22,03,33,9.20
2014,06,22,03,34,9.20
2014,06,22,03,35,9.20
2014,06,22,03,36,9.10
2014,06,22,03,37,9.10
2014,06,22,03,38,9.10
2014,06,22,03,39,9.10
2014,06,22,03,40,9.00
2014,06,22,03,41,9.00
2014,06,22,03,42,9.00
2014,06,22,03,43,9.00
2014,06,22,03,44,8.90
2014,06,22,03,45,8.90
2014,06,22,03,46,8.90
2014,06,22,03,47,8.90
2014,06,22,03,48,8.90
2014,06,22,03,49,8.90
2014,06,22,03,50,8.90
2014,06,22,03,51,8.90
2014,06,22,03,52,8.90
2014,06,22,03,53,8.90
2014,06,22,03,54,8.90
2014,06,22,03,55,8.90
2014,06,22,03,56,8.90
2014,06,22,03,57,8.90
2014,06,22,03,58,8.90
2014,06,22,03,59,8.90
2014,06,22,04,00,8.90
2014,06,22,04,01,8.90
2014,06,22,04,02,8.90
2014,06,22,04,03,8.90
2014,06,22,04,04,8.90
2014,06,22,04,05,8.90
2014,06,22,04,06,8.80
2014,06,22,04,07,8.80
2014,06,22,04,08,8.80
2014,06,22,04,09,8.80
2014,06,22,04,10,8.80
2014,06,22,04,11,8.70
2014,06,22,04,12,8.70
2014,06,22,04,13,8.60
2014,06,22,04,14,8.60
2014,06,22,04,15,8.50
2014,06,22,04,16,8.50
2014,06,22,04,17,8.40
2014,06,22,04,18,8.40
2014,06,22,04,19,8.40
2014,06,22,04,20,8.40
2014,06,22,04,21,8.40
2014,06,22,04,22,8.40
2014,06,22,04,23,8.40
2014,06,22,04,24,8.40
2014,06,22,04,25,8.30
2014,06,22,04,26,8.30
2014,06,22,04,27,8.30
2014,06,22,04,28,8.30
2014,06,22,04,29,8.30
2014,06,22,04,30,8.30
2014,06,22,04,31,8.20
2014,06,22,04,32,8.20
2014,06,22,04,33,8.20
2014,06,22,04,34,8.20
2014,06,22,04,35,8.20
2014,06,22,04,36,8.10
2014,06,22,04,37,8.10
2014,06,22,04,38,8.10
2014,06,22,04,39,8.10
2014,06,22,04,40,8.10
2014,06,22,04,41,8.10
2014,06,22,04,42,8.10
2014,06,22,04,43,8.10
2014,06,22,04,44,8.10
2014,06,22,04,45,8.10
2014,06,22,04,46,8.10
2014,06,22,04,47,8.00
2014,06,22,04,48,8.00
2014,06,22,04,49,8.00
2014,06,22,04,50,8.00
2014,06,22,04,51,7.90
2014,06,22,04,52,7.90
2014,06,22,04,53,7.90
2014,06,22,04,54,7.90
2014,06,22,04,55,7.90
2014,06,22,04,56,7.80
2014,06,22,04,57,7.80
2014,06,22,04,58,7.80
2014,06,22,04,59,7.80
2014,06,22,05,00,7.80
2014,06,22,05,01,7.80
2014,06,22,05,02,7.70
2014,06,22,05,03,7.70
2014,06,22,05,04,7.70
2014,06,22,05,05,7.70
2014,06,22,05,06,7.70
2014,06,22,05,07,7.70
2014,06,22,05,08,7.70
2014,06,22,05,09,7.70
2014,06,22,05,10,7.70
2014,06,22,05,11,7.70
2014,06,22,05,12,7.70
2014,06,22,05,13,7.70
2014,06,22,05,14,7.70
2014,06,22,05,15,7.70
2014,06,22,05,16,7.70
2014,06,22,05,17,7.70
2014,06,22,05,18,7.70
2014,06,22,05,19,7.70
2014,06,22,05,20,7.70
2014,06,22,05,21,7.70
2014,06,22,05,22,7.70
2014,06,22,05,23,7.70
2014,06,22,05,24,7.60
2014,06,22,05,25,7.60
2014,06,22,05,26,7.60
2014,06,22,05,27,7.60
2014,06,22,05,28,7.60
2014,06,22,05,29,7.60
2014,06,22,05,30,7.60
2014,06,22,05,31,7.60
2014,06,22,05,32,7.60
2014,06,22,05,33,7.60
2014,06,22,05,34,7.60
2014,06,22,05,35,7.60
2014,06,22,05,36,7.60
2014,06,22,05,37,7.60
2014,06,22,05,38,7.60
2014,06,22,05,39,7.60
2014,06,22,05,40,7.60
2014,06,22,05,41,7.50
2014,06,22,05,42,7.50
2014,06,22,05,43,7.50
2014,06,22,05,44,7.50
2014,06,22,05,45,7.50
2014,06,22,05,46,7.50
2014,06,22,05,47,7.50
2014,06,22,05,48,7.50
2014,06,22,05,49,7.50
2014,06,22,05,50,7.50
2014,06,22,05,51,7.50
2014,06,22,05,52,7.50
2014,06,22,05,53,7.50
2014,06,22,05,54,7.50
2014,06,22,05,55,7.60
2014,06,22,05,56,7.60
2014,06,22,05,57,7.70
2014,06,22,05,58,7.70
2014,06,22,05,59,7.70
2014,06,22,06,00,7.80
2014,06,22,06,01,7.80
2014,06,22,06,02,7.80
2014,06,22,06,03,7.80
2014,06,22,06,04,7.90
2014,06,22,06,05,7.90
2014,06,22,06,06,7.90
2014,06,22,06,07,8.00
2014,06,22,06,08,8.00
2014,06,22,06,09,8.10
2014,06,22,06,10,8.10
2014,06,22,06,11,8.20
2014,06,22,06,12,8.20
2014,06,22,06,13,8.30
2014,06,22,06,14,8.30
2014,06,22,06,15,8.40
2014,06,22,06,16,8.50
2014,06,22,06,17,8.50
2014,06,22,06,18,8.60
2014,06,22,06,19,8.70
2014,06,22,06,20,8.80
2014,06,22,06,21,8.80
2014,06,22,06,22,8.90
2014,06,22,06,23,9.00
2014,06,22,06,24,9.00
2014,06,22,06,25,9.10
2014,06,22,06,26,9.20
2014,06,22,06,27,9.30
2014,06,22,06,28,9.40
2014,06,22,06,29,9.50
2014,06,22,06,30,9.60
2014,06,22,06,31,9.70
2014,06,22,06,32,9.70
2014,06,22,06,33,9.80
2014,06,22,06,34,9.80
2014,06,22,06,35,9.80
2014,06,22,06,36,9.90
2014,06,22,06,37,9.90
2014,06,22,06,38,9.90
2014,06,22,06,39,9.90
2014,06,22,06,40,9.90
2014,06,22,06,41,10.00
2014,06,22,06,42,10.10
2014,06,22,06,43,10.10
2014,06,22,06,44,10.20
2014,06,22,06,45,10.20
2014,06,22,06,46,10.30
2014,06,22,06,47,10.30
2014,06,22,06,48,10.40
2014,06,22,06,49,10.50
2014,06,22,06,50,10.60
2014,06,22,06,51,10.70
2014,06,22,06,52,10.70
2014,06,22,06,53,10.70
2014,06,22,06,54,10.80
2014,06,22,06,55,10.80
2014,06,22,06,56,10.90
2014,06,22,06,57,10.90
2014,06,22,06,58,11.00
2014,06,22,06,59,11.10
2014,06,22,07,00,11.10
2014,06,22,07,01,11.20
2014,06,22,07,02,11.30
2014,06,22,07,03,11.40
2014,06,22,07,04,11.50
2014,06,22,07,05,11.60
2014,06,22,07,06,11.70
2014,06,22,07,07,11.80
2014,06,22,07,08,11.90
2014,06,22,07,09,12.00
2014,06,22,07,10,12.20
2014,06,22,07,11,12.30
2014,06,22,07,12,12.40
2014,06,22,07,13,12.60
2014,06,22,07,14,12.70
2014,06,22,07,15,12.90
2014,06,22,07,16,13.00
2014,06,22,07,17,13.20
2014,06,22,07,18,13.40
2014,06,22,07,19,13.50
2014,06,22,07,20,13.70
2014,06,22,07,21,13.90
2014,06,22,07,22,14.00
2014,06,22,07,23,14.20
2014,06,22,07,24,14.20
2014,06,22,07,25,14.30
2014,06,22,07,26,14.30
2014,06,22,07,27,14.30
2014,06,22,07,28,14.30
2014,06,22,07,29,14.30
2014,06,22,07,30,14.30
2014,06,22,07,31,14.20
2014,06,22,07,32,14.20
2014,06,22,07,33,14.20
2014,06,22,07,34,14.10
2014,06,22,07,35,14.10
2014,06,22,07,36,14.10
2014,06,22,07,37,14.00
2014,06,22,07,38,14.00
2014,06,22,07,39,13.90
2014,06,22,07,40,13.90
2014,06,22,07,41,13.80
2014,06,22,07,42,13.80
2014,06,22,07,43,13.80
2014,06,22,07,44,13.70
2014,06,22,07,45,13.70
2014,06,22,07,46,13.70
2014,06,22,07,47,13.70
2014,06,22,07,48,13.70
2014,06,22,07,49,13.70
2014,06,22,07,50,13.60
2014,06,22,07,51,13.60
2014,06,22,07,52,13.60
2014,06,22,07,53,13.60
2014,06,22,07,54,13.60
2014,06,22,07,55,13.60
2014,06,22,07,56,13.70
2014,06,22,07,57,13.70
2014,06,22,07,58,13.70
2014,06,22,07,59,13.80
2014,06,22,08,00,13.80
2014,06,22,08,01,13.90
2014,06,22,08,02,14.00
2014,06,22,08,03,14.10
2014,06,22,08,04,14.10
2014,06,22,08,05,14.20
2014,06,22,08,06,14.20
2014,06,22,08,07,14.20
2014,06,22,08,08,14.30
2014,06,22,08,09,14.30
2014,06,22,08,10,14.30
2014,06,22,08,11,14.30
2014,06,22,08,12,14.40
2014,06,22,08,13,14.40
2014,06,22,08,14,14.50
2014,06,22,08,15,14.50
2014,06,22,08,16,14.60
2014,06,22,08,17,14.60
2014,06,22,08,18,14.70
2014,06,22,08,19,14.70
2014,06,22,08,20,14.70
2014,06,22,08,21,14.70
2014,06,22,08,22,14.70
2014,06,22,08,23,14.70
2014,06,22,08,24,14.70
2014,06,22,08,25,14.70
2014,06,22,08,26,14.60
2014,06,22,08,27,14.60
2014,06,22,08,28,14.70
2014,06,22,08,29,14.70
2014,06,22,08,30,14.70
2014,06,22,08,31,14.70
2014,06,22,08,32,14.70
2014,06,22,08,33,14.70
2014,06,22,08,34,14.70
2014,06,22,08,35,14.70
2014,06,22,08,36,14.70
2014,06,22,08,37,14.70
2014,06,22,08,38,14.70
2014,06,22,08,39,14.70
2014,06,22,08,40,14.70
2014,06,22,08,41,14.70
2014,06,22,08,42,14.70
2014,06,22,08,43,14.70
2014,06,22,08,44,14.70
2014,06,22,08,45,14.70
2014,06,22,08,46,14.70
2014,06,22,08,47,14.70
2014,06,22,08,48,14.70
2014,06,22,08,49,14.70
2014,06,22,08,50,14.80
2014,06,22,08,51,14.80
2014,06,22,08,52,14.90
2014,06,22,08,53,14.90
2014,06,22,08,54,15.00
2014,06,22,08,55,15.10
2014,06,22,08,56,15.20
2014,06,22,08,57,15.20
2014,06,22,08,58,15.30
2014,06,22,08,59,15.40
2014,06,22,09,00,15.50
2014,06,22,09,01,15.60
2014,06,22,09,02,15.70
2014,06,22,09,03,15.80
2014,06,22,09,04,15.90
2014,06,22,09,05,16.00
2014,06,22,09,06,16.10
2014,06,22,09,07,16.10
2014,06,22,09,08,16.20
2014,06,22,09,09,16.20
2014,06,22,09,10,16.30
2014,06,22,09,11,16.40
2014,06,22,09,12,16.50
2014,06,22,09,13,16.50
2014,06,22,09,14,16.60
2014,06,22,09,15,16.60
2014,06,22,09,16,16.70
2014,06,22,09,17,16.70
2014,06,22,09,18,16.80
2014,06,22,09,19,16.90
2014,06,22,09,20,16.90
2014,06,22,09,21,17.00
2014,06,22,09,22,17.10
2014,06,22,09,23,17.10
2014,06,22,09,24,17.20
2014,06,22,09,25,17.20
2014,06,22,09,26,17.30
2014,06,22,09,27,17.30
2014,06,22,09,28,17.30
2014,06,22,09,29,17.30
2014,06,22,09,30,17.40
2014,06,22,09,31,17.40
2014,06,22,09,32,17.30
2014,06,22,09,33,17.30
2014,06,22,09,34,17.30
2014,06,22,09,35,17.20
2014,06,22,09,36,17.20
2014,06,22,09,37,17.20
2014,06,22,09,38,17.10
2014,06,22,09,39,17.10
2014,06,22,09,40,17.10
2014,06,22,09,41,17.10
2014,06,22,09,42,17.10
2014,06,22,09,43,17.20
2014,06,22,09,44,17.20
2014,06,22,09,45,17.20
2014,06,22,09,46,17.30
2014,06,22,09,47,17.30
2014,06,22,09,48,17.30
2014,06,22,09,49,17.40
2014,06,22,09,50,17.40
2014,06,22,09,51,17.40
2014,06,22,09,52,17.40
2014,06,22,09,53,17.40
2014,06,22,09,54,17.30
2014,06,22,09,55,17.30
2014,06,22,09,56,17.20
2014,06,22,09,57,17.20
2014,06,22,09,58,17.10
2014,06,22,09,59,17.10
2014,06,22,10,00,17.00
2014,06,22,10,01,16.80
2014,06,22,10,02,16.70
2014,06,22,10,03,16.60
2014,06,22,10,04,16.40
2014,06,22,10,05,16.30
2014,06,22,10,06,16.20
2014,06,22,10,07,16.20
2014,06,22,10,08,16.10
2014,06,22,10,09,16.00
2014,06,22,10,10,16.00
2014,06,22,10,11,15.90
2014,06,22,10,12,15.80
2014,06,22,10,13,15.80
2014,06,22,10,14,15.80
2014,06,22,10,15,15.80
2014,06,22,10,16,15.80
2014,06,22,10,17,15.80
2014,06,22,10,18,15.80
2014,06,22,10,19,15.80
2014,06,22,10,20,15.80
2014,06,22,10,21,15.80
2014,06,22,10,22,15.80
2014,06,22,10,23,15.80
2014,06,22,10,24,15.90
2014,06,22,10,25,15.90
2014,06,22,10,26,15.90
2014,06,22,10,27,15.90
2014,06,22,10,28,15.90
2014,06,22,10,29,15.90
2014,06,22,10,30,15.90
2014,06,22,10,31,15.90
2014,06,22,10,32,15.90
2014,06,22,10,33,15.90
2014,06,22,10,34,15.90
2014,06,22,10,35,15.90
2014,06,22,10,36,15.90
2014,06,22,10,37,16.00
2014,06,22,10,38,16.00
2014,06,22,10,39,16.10
2014,06,22,10,40,16.10
2014,06,22,10,41,16.20
2014,06,22,10,42,16.20
2014,06,22,10,43,16.30
2014,06,22,10,44,16.30
2014,06,22,10,45,16.40
2014,06,22,10,46,16.40
2014,06,22,10,47,16.40
2014,06,22,10,48,16.40
2014,06,22,10,49,16.40
2014,06,22,10,50,16.40
2014,06,22,10,51,16.50
2014,06,22,10,52,16.50
2014,06,22,10,53,16.60
2014,06,22,10,54,16.60
2014,06,22,10,55,16.70
2014,06,22,10,56,16.70
2014,06,22,10,57,16.80
2014,06,22,10,58,16.80
2014,06,22,10,59,16.90
2014,06,22,11,00,16.90
2014,06,22,11,01,17.00
2014,06,22,11,02,17.10
2014,06,22,11,03,17.10
2014,06,22,11,04,17.10
2014,06,22,11,05,17.10
2014,06,22,11,06,17.10
2014,06,22,11,07,17.20
2014,06,22,11,08,17.20
2014,06,22,11,09,17.20
2014,06,22,11,10,17.30
2014,06,22,11,11,17.30
2014,06,22,11,12,17.30
2014,06,22,11,13,17.30
2014,06,22,11,14,17.40
2014,06,22,11,15,17.40
2014,06,22,11,16,17.40
2014,06,22,11,17,17.40
2014,06,22,11,18,17.40
2014,06,22,11,19,17.50
2014,06,22,11,20,17.50
2014,06,22,11,21,17.50
2014,06,22,11,22,17.60
2014,06,22,11,23,17.60
2014,06,22,11,24,17.70
2014,06,22,11,25,17.80
2014,06,22,11,26,17.80
2014,06,22,11,27,17.90
2014,06,22,11,28,17.90
2014,06,22,11,29,17.90
2014,06,22,11,30,17.90
2014,06,22,11,31,18.00
2014,06,22,11,32,18.00
2014,06,22,11,33,18.10
2014,06,22,11,34,18.20
2014,06,22,11,35,18.30
2014,06,22,11,36,18.30
2014,06,22,11,37,18.40
2014,06,22,11,38,18.40
2014,06,22,11,39,18.50
2014,06,22,11,40,18.60
2014,06,22,11,41,18.70
2014,06,22,11,42,18.70
2014,06,22,11,43,18.80
2014,06,22,11,44,18.80
2014,06,22,11,45,18.80
2014,06,22,11,46,18.80
2014,06,22,11,47,18.90
2014,06,22,11,48,18.90
2014,06,22,11,49,18.90
2014,06,22,11,50,18.90
2014,06,22,11,51,19.00
2014,06,22,11,52,19.00
2014,06,22,11,53,19.00
2014,06,22,11,54,18.90
2014,06,22,11,55,18.80
2014,06,22,11,56,18.80
2014,06,22,11,57,18.70
2014,06,22,11,58,18.70
2014,06,22,11,59,18.70
2014,06,22,12,00,18.70
2014,06,22,12,01,18.80
2014,06,22,12,02,18.90
2014,06,22,12,03,18.90
2014,06,22,12,04,19.00
2014,06,22,12,05,19.10
2014,06,22,12,06,19.20
2014,06,22,12,07,19.30
2014,06,22,12,08,19.40
2014,06,22,12,09,19.30
2014,06,22,12,10,19.30
2014,06,22,12,11,19.20
2014,06,22,12,12,19.10
2014,06,22,12,13,19.10
2014,06,22,12,14,19.10
2014,06,22,12,15,19.10
2014,06,22,12,16,19.10
2014,06,22,12,17,19.10
2014,06,22,12,18,19.10
2014,06,22,12,19,19.00
2014,06,22,12,20,18.90
2014,06,22,12,21,18.90
2014,06,22,12,22,18.80
2014,06,22,12,23,18.70
2014,06,22,12,24,18.60
2014,06,22,12,25,18.60
2014,06,22,12,26,18.50
2014,06,22,12,27,18.50
2014,06,22,12,28,18.50
2014,06,22,12,29,18.50
2014,06,22,12,30,18.50
2014,06,22,12,31,18.50
2014,06,22,12,32,18.60
2014,06,22,12,33,18.60
2014,06,22,12,34,18.60
2014,06,22,12,35,18.60
2014,06,22,12,36,18.60
2014,06,22,12,37,18.60
2014,06,22,12,38,18.70
2014,06,22,12,39,18.70
2014,06,22,12,40,18.80
2014,06,22,12,41,18.90
2014,06,22,12,42,19.10
2014,06,22,12,43,19.20
2014,06,22,12,44,19.30
2014,06,22,12,45,19.40
2014,06,22,12,46,19.40
2014,06,22,12,47,19.50
2014,06,22,12,48,19.50
2014,06,22,12,49,19.60
2014,06,22,12,50,19.70
2014,06,22,12,51,19.80
2014,06,22,12,52,19.80
2014,06,22,12,53,19.90
2014,06,22,12,54,20.00
2014,06,22,12,55,20.10
2014,06,22,12,56,20.10
2014,06,22,12,57,20.20
2014,06,22,12,58,20.20
2014,06,22,12,59,20.30
2014,06,22,13,00,20.40
2014,06,22,13,01,20.50
2014,06,22,13,02,20.50
2014,06,22,13,03,20.60
2014,06,22,13,04,20.60
2014,06,22,13,05,20.70
2014,06,22,13,06,20.80
2014,06,22,13,07,20.90
2014,06,22,13,08,20.90
2014,06,22,13,09,21.00
2014,06,22,13,10,21.00
2014,06,22,13,11,21.00
2014,06,22,13,12,21.00
2014,06,22,13,13,21.00
2014,06,22,13,14,20.90
2014,06,22,13,15,20.90
2014,06,22,13,16,20.90
2014,06,22,13,17,20.90
2014,06,22,13,18,20.90
2014,06,22,13,19,20.90
2014,06,22,13,20,20.90
2014,06,22,13,21,20.90
2014,06,22,13,22,21.00
2014,06,22,13,23,21.00
2014,06,22,13,24,21.00
2014,06,22,13,25,20.90
2014,06,22,13,26,20.90
2014,06,22,13,27,20.90
2014,06,22,13,28,20.90
2014,06,22,13,29,21.00
2014,06,22,13,30,21.00
2014,06,22,13,31,20.90
2014,06,22,13,32,20.80
2014,06,22,13,33,20.80
2014,06,22,13,34,20.80
2014,06,22,13,35,20.70
2014,06,22,13,36,20.50
2014,06,22,13,37,20.50
2014,06,22,13,38,20.40
2014,06,22,13,39,20.30
2014,06,22,13,40,20.20
2014,06,22,13,41,20.10
2014,06,22,13,42,20.00
2014,06,22,13,43,19.90
2014,06,22,13,44,19.90
2014,06,22,13,45,19.90
2014,06,22,13,46,19.90
2014,06,22,13,47,19.90
2014,06,22,13,48,19.90
2014,06,22,13,49,20.00
2014,06,22,13,50,20.00
2014,06,22,13,51,20.20
2014,06,22,13,52,20.30
2014,06,22,13,53,20.40
2014,06,22,13,54,20.50
2014,06,22,13,55,20.60
2014,06,22,13,56,20.60
2014,06,22,13,57,20.70
2014,06,22,13,58,20.70
2014,06,22,13,59,20.70
2014,06,22,14,00,20.70
2014,06,22,14,01,20.70
2014,06,22,14,02,20.70
2014,06,22,14,03,20.70
2014,06,22,14,04,20.80
2014,06,22,14,05,20.80
2014,06,22,14,06,20.90
2014,06,22,14,07,20.90
2014,06,22,14,08,21.00
2014,06,22,14,09,21.10
2014,06,22,14,10,21.20
2014,06,22,14,11,21.30
2014,06,22,14,12,21.30
2014,06,22,14,13,21.40
2014,06,22,14,14,21.50
2014,06,22,14,15,21.40
2014,06,22,14,16,21.40
2014,06,22,14,17,21.50
2014,06,22,14,18,21.50
2014,06,22,14,19,21.50
2014,06,22,14,20,21.40
2014,06,22,14,21,21.20
2014,06,22,14,22,21.10
2014,06,22,14,23,21.00
2014,06,22,14,24,20.90
2014,06,22,14,25,20.80
2014,06,22,14,26,20.70
2014,06,22,14,27,20.60
2014,06,22,14,28,20.60
2014,06,22,14,29,20.50
2014,06,22,14,30,20.50
2014,06,22,14,31,20.40
2014,06,22,14,32,20.30
2014,06,22,14,33,20.30
2014,06,22,14,34,20.30
2014,06,22,14,35,20.30
2014,06,22,14,36,20.30
2014,06,22,14,37,20.30
2014,06,22,14,38,20.30
2014,06,22,14,39,20.40
2014,06,22,14,40,20.50
2014,06,22,14,41,20.70
2014,06,22,14,42,20.80
2014,06,22,14,43,20.90
2014,06,22,14,44,20.90
2014,06,22,14,45,21.00
2014,06,22,14,46,21.10
2014,06,22,14,47,21.20
2014,06,22,14,48,21.20
2014,06,22,14,49,21.30
2014,06,22,14,50,21.30
2014,06,22,14,51,21.30
2014,06,22,14,52,21.30
2014,06,22,14,53,21.20
2014,06,22,14,54,21.30
2014,06,22,14,55,21.30
2014,06,22,14,56,21.30
2014,06,22,14,57,21.30
2014,06,22,14,58,21.30
2014,06,22,14,59,21.30
2014,06,22,15,00,21.30
2014,06,22,15,01,21.40
2014,06,22,15,02,21.40
2014,06,22,15,03,21.40
2014,06,22,15,04,21.30
2014,06,22,15,05,21.30
2014,06,22,15,06,21.30
2014,06,22,15,07,21.30
2014,06,22,15,08,21.30
2014,06,22,15,09,21.30
2014,06,22,15,10,21.40
2014,06,22,15,11,21.40
2014,06,22,15,12,21.50
2014,06,22,15,13,21.60
2014,06,22,15,14,21.70
2014,06,22,15,15,21.80
2014,06,22,15,16,21.90
2014,06,22,15,17,21.90
2014,06,22,15,18,22.00
2014,06,22,15,19,22.10
2014,06,22,15,20,22.10
2014,06,22,15,21,22.20
2014,06,22,15,22,22.20
2014,06,22,15,23,22.30
2014,06,22,15,24,22.30
2014,06,22,15,25,22.40
2014,06,22,15,26,22.50
2014,06,22,15,27,22.60
2014,06,22,15,28,22.70
2014,06,22,15,29,22.60
2014,06,22,15,30,22.60
2014,06,22,15,31,22.50
2014,06,22,15,32,22.40
2014,06,22,15,33,22.30
2014,06,22,15,34,22.30
2014,06,22,15,35,22.30
2014,06,22,15,36,22.30
2014,06,22,15,37,22.30
2014,06,22,15,38,22.30
2014,06,22,15,39,22.30
2014,06,22,15,40,22.30
2014,06,22,15,41,22.40
2014,06,22,15,42,22.50
2014,06,22,15,43,22.60
2014,06,22,15,44,22.60
2014,06,22,15,45,22.70
2014,06,22,15,46,22.80
2014,06,22,15,47,22.90
2014,06,22,15,48,22.90
2014,06,22,15,49,23.00
2014,06,22,15,50,23.00
2014,06,22,15,51,23.00
2014,06,22,15,52,23.00
2014,06,22,15,53,23.00
2014,06,22,15,54,23.10
2014,06,22,15,55,23.10
2014,06,22,15,56,23.00
2014,06,22,15,57,23.00
2014,06,22,15,58,23.10
2014,06,22,15,59,23.10
2014,06,22,16,00,23.20
2014,06,22,16,01,23.20
2014,06,22,16,02,23.10
2014,06,22,16,03,23.10
2014,06,22,16,04,23.10
2014,06,22,16,05,23.10
2014,06,22,16,06,23.20
2014,06,22,16,07,23.30
2014,06,22,16,08,23.30
2014,06,22,16,09,23.40
2014,06,22,16,10,23.40
2014,06,22,16,11,23.40
2014,06,22,16,12,23.40
2014,06,22,16,13,23.50
2014,06,22,16,14,23.50
2014,06,22,16,15,23.50
2014,06,22,16,16,23.60
2014,06,22,16,17,23.60
2014,06,22,16,18,23.70
2014,06,22,16,19,23.80
2014,06,22,16,20,23.80
2014,06,22,16,21,23.70
2014,06,22,16,22,23.60
2014,06,22,16,23,23.50
2014,06,22,16,24,23.30
2014,06,22,16,25,23.20
2014,06,22,16,26,23.20
2014,06,22,16,27,23.10
2014,06,22,16,28,23.00
2014,06,22,16,29,23.00
2014,06,22,16,30,22.90
2014,06,22,16,31,22.90
2014,06,22,16,32,22.80
2014,06,22,16,33,22.80
2014,06,22,16,34,22.90
2014,06,22,16,35,22.90
2014,06,22,16,36,22.90
2014,06,22,16,37,23.00
2014,06,22,16,38,23.10
2014,06,22,16,39,23.10
2014,06,22,16,40,23.20
2014,06,22,16,41,23.20
2014,06,22,16,42,23.20
2014,06,22,16,43,23.20
2014,06,22,16,44,23.20
2014,06,22,16,45,23.20
2014,06,22,16,46,23.20
2014,06,22,16,47,23.20
2014,06,22,16,48,23.20
2014,06,22,16,49,23.20
2014,06,22,16,50,23.20
2014,06,22,16,51,23.20
2014,06,22,16,52,23.20
2014,06,22,16,53,23.10
2014,06,22,16,54,23.00
2014,06,22,16,55,23.00
2014,06,22,16,56,22.90
2014,06,22,16,57,22.90
2014,06,22,16,58,22.90
2014,06,22,16,59,22.80
2014,06,22,17,00,22.80
2014,06,22,17,01,22.70
2014,06,22,17,02,22.60
2014,06,22,17,03,22.60
2014,06,22,17,04,22.60
2014,06,22,17,05,22.70
2014,06,22,17,06,22.70
2014,06,22,17,07,22.60
2014,06,22,17,08,22.60
2014,06,22,17,09,22.50
2014,06,22,17,10,22.50
2014,06,22,17,11,22.50
2014,06,22,17,12,22.50
2014,06,22,17,13,22.50
2014,06,22,17,14,22.40
2014,06,22,17,15,22.40
2014,06,22,17,16,22.40
2014,06,22,17,17,22.40
2014,06,22,17,18,22.40
2014,06,22,17,19,22.40
2014,06,22,17,20,22.30
2014,06,22,17,21,22.30
2014,06,22,17,22,22.20
2014,06,22,17,23,22.20
2014,06,22,17,24,22.20
2014,06,22,17,25,22.30
2014,06,22,17,26,22.30
2014,06,22,17,27,22.30
2014,06,22,17,28,22.20
2014,06,22,17,29,22.10
2014,06,22,17,30,22.10